Weather in Paytovskaya

Russia / Arkhangel'skaya Oblast'     61°16′08″N   42°22′45″E
temp.,
°C
wind,
m/s
gust,
m/s
humid.,
%
clouds,
%
prec.,
mm/h
press.,
hPa
HPBL,
m
16 may, sun
sun1600:00+15sse3996100 0.9 1007371
03:00+14sse399676 1.3 1005531
06:00+14s51190100 0.2 1005709
09:00+17ssw5107997 0.3 1005997
12:00+21sw61153100 0.6 10061967
15:00+20sw61061100 1.1 10061610
18:00+18wsw497494 1.1 10071011
21:00+13sw279533 2.1 1008155
17 may, mon
mon1700:00+12wsw2598100 0.3 1009153
03:00+12w1497100 0.3 1011148
06:00+12nnw259293 0.0 1013303
09:00+16nnw237020 0.0 1015848
12:00+20n234720 0.0 10161610
15:00+22nne113942 0.0 10171953
18:00+21e1145100 0.0 1017616
21:00+15ese2266100 0.0 101816
18 may, tue
tue1800:00+12ese278187 0.0 1019134
03:00+11ese279115 0.0 1019170
06:00+14se4107727 0.0 1020362
09:00+20se475686 0.0 1019833
12:00+24se574621 0.0 10171344
15:00+26sse57415 0.0 10161795
18:00+26sse47473 0.0 10151426
21:00+20se412705 0.0 1015407
19 may, wed
wed1900:00+17se413866 0.1 1015335
03:00+15se311945 0.1 1015300
06:00+18sse3118013 0.0 1015364
09:00+24s585117 0.0 1014733
12:00+29s511285 0.0 10133092
15:00+30s69247 0.0 10133869
18:00+28sse59335 0.0 10121500
21:00+21sse312520 0.0 1013341
20 may, thu
thu2000:00+19sse414660 0.0 1012377
03:00+16se310840 0.0 1013231
06:00+19sse397495 0.0 1012337
09:00+25sse47470 0.0 1011889
12:00+28sse610344 0.0 10102190
15:00+27sse493999 0.0 10091005
18:00+27se59380 0.0 10062298
21:00+18ssw258485 0.5 1009163